Terug naar catalogus

STARLINK-32697

ActiefCommunicatieVLEO
NORAD 62436·PAYLOAD·🇺🇸 United States

Gelanceerd Dec 29, 2024 vanaf Vandenberg Space Force Base

Loading…

Volgende Passages (komende 24 uur)

TLE

VersSource: CelesTrak SupGP

Epoch: Sep 14, 2026, 21:38 UTC

1 62436C 24251E   26257.90187500 -.00017699  00000+0 -52271-3 0  2577
2 62436  53.1582 175.5725 0001238  92.5456 131.2982 15.34411391    13

Volg STARLINK-32697 in realtime met AllMySat

Download on the App Store